Location: Krakow
(50.0830°N, 19.9170°E)
Time: 16:16:19
(UTC+02:00)

Transit 2A Rocket - Visible Passes

Search period start: 26 May 2024 00:00
Search period end: 05 June 2024 00:00
Orbit: 584 x 909 km, 66.7° (Epoch: 25 May)

Date Brightness Start Highest point End Pass type
(mag) Time Alt. Az. Time Alt. Az. Time Alt. Az.
26 May 6.8 02:38:23 10° SSE 02:41:54 20° ESE 02:45:38 10° ENE visible
27 May 7.2 01:56:44 10° ESE 01:58:21 11° E 01:59:59 10° E visible
27 May 5.1 03:34:51 10° SSW 03:39:41 71° ESE 03:45:04 10° NE visible
28 May 5.7 02:51:57 14° S 02:55:48 43° ESE 03:00:51 10° NE visible
29 May 6.4 02:09:03 15° SSE 02:12:04 26° ESE 02:16:23 10° NE visible
29 May 5.3 03:49:13 10° SW 03:54:07 60° NW 03:59:35 10° NNE visible
30 May 6.9 01:26:07 11° SE 01:28:27 15° ESE 01:31:24 10° ENE visible
30 May 5.0 03:05:54 15° SW 03:10:01 88° SE 03:15:30 10° NE visible
31 May 5.3 02:22:56 21° S 02:26:04 55° ESE 02:31:21 10° NE visible
01 Jun 6.0 01:39:55 22° SSE 01:42:15 33° ESE 01:47:00 10° NE visible
01 Jun 5.6 03:19:42 10° WSW 03:24:33 50° NW 03:29:57 10° NNE visible
02 Jun 6.5 00:56:51 17° SE 00:58:34 20° ESE 01:02:20 10° ENE visible
02 Jun 5.1 02:36:38 18° SW 02:40:23 76° NW 02:45:55 10° NE visible
03 Jun 7.0 00:13:46 10° ESE 00:15:01 11° E 00:16:37 10° E visible
03 Jun 5.0 01:53:32 26° SSW 01:56:20 69° ESE 02:01:47 10° NE visible
03 Jun 6.5 03:34:49 10° W 03:39:22 30° NW 03:44:19 10° NNE visible
04 Jun 5.6 01:10:24 28° SSE 01:12:27 42° ESE 01:17:32 10° NE visible
04 Jun 6.0 02:50:11 10° WSW 02:55:00 42° NW 03:00:18 10° NNE visible
